[[{"header":{"parameterUnit":"m.s-1","parameterCategory":1,"la1":30.2991,"la2":30.254,"lo1":-89.0895,"lo2":-89.0444,"dy":0.0017,"dx":0.0017,"nx":28,"ny":28,"refTime":"2023-09-20T21:00:00:Z","depth":0,"parameterNumber":2,"parameterNumberName":"U-component_of_WINDS"},"data":[0,0,0,0,0,0,0,0,0,0,0,0,0,0,0,0,0,0,0,0,0,0,0,0,0,0,0,0,0,0,0,0,0,0,0,0,0,0,0,0,0,0,0,0,0,0,0,0,0,0,0,0,0,0,0,0,0,0,-3.8842,-3.8842,0,-3.8839,-3.8839,-3.8839,-3.8721,-3.8718,-3.8715,-3.8712,-3.8711,-3.8714,-3.8716,0,0,0,0,0,0,0,0,0,0,0,0,0,-3.8749,-3.8751,-3.8842,-3.8842,-3.8842,-3.8839,-3.8839,-3.8839,-3.8721,-3.8717,-3.8714,-3.871,-3.871,-3.8713,-3.8717,0,0,0,0,0,0,0,0,0,0,0,0,0,-3.8772,-3.8752,-3.8842,-3.8783,-3.8777,-3.8839,-3.8839,-3.8839,-3.8722,-3.8717,-3.8713,-3.8709,-3.8709,-3.8713,-3.8717,-3.8835,0,0,-3.873,-3.8732,0,0,0,0,0,0,0,0,-3.8771,-3.8775,-3.8791,-3.8787,-3.8781,-3.8775,-3.8805,-3.8838,-3.8723,-3.8743,-3.8712,-3.8706,-3.8736,-3.8738,-3.8747,-3.8835,-3.8835,-3.873,-3.8733,-3.8735,-3.8736,0,0,0,0,0,0,0,-3.8769,-3.8775,-3.884,-3.8792,-3.8785,-3.8757,-3.8755,-3.8811,-3.8766,-3.8741,-3.8732,-3.8734,-3.8732,-3.8744,-3.8747,-3.8835,-3.873,-3.8734,-3.8737,-3.8738,-3.9023,-3.9028,0,0,0,0,0,0,-3.8775,-3.8774,-3.8841,-3.884,-3.8764,-3.8763,-3.8761,-3.8782,-3.8765,-3.8757,-3.8738,-3.8728,-3.8739,-3.8742,-3.8746,-3.8886,-3.8735,-3.8739,-3.8741,-3.9018,-3.9024,-3.903,0,0,0,0,0,0,-3.8774,-3.8782,-3.8841,-3.8805,-3.881,-3.8769,-3.8794,-3.8784,-3.8795,-3.8762,-3.8753,-3.8757,-3.8735,-3.874,-3.8815,-3.8884,-3.8741,-3.8745,-3.9012,-3.902,-3.9027,-3.9165,0,0,0,0,0,0,-3.8772,-3.8783,-3.8826,-3.8807,-3.8813,-3.8909,-3.8798,-3.8787,-3.8803,-3.879,-3.8778,-3.8772,-3.8732,-3.8809,-3.8819,-3.8887,-3.8748,-3.9006,-3.9016,-3.9025,-3.9154,-3.9176,-3.9195,0,0,0,0,0,-3.8769,-3.8865,-3.8829,-3.8838,-3.8866,-3.8913,-3.8916,-3.8868,-3.8809,-3.8853,-3.8832,-3.8772,-3.8874,-3.8818,-3.8828,-3.8898,-3.9001,-3.9013,-3.9024,-3.9144,-3.9171,-3.9194,0,0,0,0,0,0,-3.8894,-3.8861,-3.8821,-3.8914,-3.8917,-3.8893,-3.8947,-3.8898,-3.8918,-3.8906,-3.8845,-3.8844,-3.8929,-3.892,-3.8858,-3.9013,-3.8927,-3.8941,-3.9016,-3.9041,-3.9061,-3.9062,-3.8751,0,0,0,0,0,-3.8932,-3.8972,-3.8941,-3.9026,-3.903,-3.8989,-3.9007,-3.897,-3.8971,-3.8972,-3.8956,-3.896,-3.8993,-3.9016,-3.9045,-3.9151,-3.9149,-3.9205,-3.9226,-3.9243,-3.9256,-3.9315,-3.934,-3.9067,-3.9067,-3.9066,0,0,-3.9012,-3.8999,-3.9028,-3.9051,-3.9049,-3.9093,-3.8991,-3.9041,-3.9073,-3.8979,-3.9049,-3.9038,-3.9039,-3.9131,-3.917,-3.9127,-3.9331,-3.9257,-3.9271,-3.9275,-3.9329,-3.9355,-3.9378,-3.9074,-3.9073,-3.9072,0,0,-3.918,-3.9173,-3.9244,-3.9245,-3.9243,-3.9215,-3.9233,-3.9216,-3.9205,-3.9274,-3.9206,-3.9244,-3.9301,-3.9306,-3.9315,-3.9487,-3.9434,-3.9498,-3.9606,-3.9664,-3.9686,-3.9705,-3.9768,-3.9792,-3.9511,-3.9512,-3.9512,0,-3.9279,-3.9341,-3.9287,-3.9342,-3.9356,-3.9273,-3.9345,-3.9349,-3.9357,-3.9369,-3.9319,-3.9392,-3.9386,-3.9479,-3.9521,-3.9531,-3.9551,-3.95,-3.9687,-3.9705,-3.9722,-3.9782,-3.9806,-3.952,-3.9519,-3.9518,-3.9517,0,-3.9465,-3.951,-3.9567,-3.9578,-3.9597,-3.9661,-3.9618,-3.9644,-3.9606,-3.9584,-3.9657,-3.9647,-3.9674,-3.9692,-3.9655,-3.9781,-3.9754,-3.9697,-3.961,-3.9757,-3.9813,-3.9835,-3.9531,-3.9528,-3.9526,-3.9524,0,0,-3.9711,-3.9692,-3.9714,-3.9719,-3.9712,-3.9746,-3.9807,-3.9832,-3.9858,-3.9866,-3.9918,-3.9969,-3.9917,-3.9928,-3.989,-3.9941,-4.0081,-3.9877,-3.9876,-3.9917,-4.0222,-4.0267,-4.0295,-4.0045,-4.0049,-4.0052,-4.0223,0,-3.9876,-3.9978,-3.9932,-4.004,-4.0082,-4.0004,-4.0058,-4.006,-4.0042,-4.0075,-4.0055,-4.0094,-4.002,-4.0027,-4.0073,-4.0054,-4.0142,-4.0041,-4.0094,-4.0096,-4.0098,-4.0323,-4.037,-4.0532,-4.0244,-4.0248,-4.025,0,-4.008,-4.0099,-4.0211,-4.0199,-4.0215,-4.0263,-4.0284,-4.0317,-4.0319,-4.0302,-4.0316,-4.0267,-4.0328,-4.0241,-4.0325,-4.0257,-4.0276,-4.0271,-4.0276,-4.028,-4.0184,-4.0336,-4.0582,-4.0607,-4.0284,-4.0281,-4.0279,0,-4.0252,-4.0304,-4.0379,-4.0385,-4.0372,-4.0408,-4.0405,-4.0402,-4.0421,-4.044,-4.0452,-4.0477,-4.0492,-4.0514,-4.0474,-4.0414,-4.0565,-4.0474,-4.0555,-4.0556,-4.0591,-4.059,-4.0846,-4.0601,-4.06,-4.06,-4.0599,0,-4.0441,-4.0514,-4.0456,-4.0502,-4.0582,-4.0528,-4.0609,-4.0597,-4.0596,-4.0639,-4.0574,-4.0616,-4.056,-4.0598,-4.0568,-4.0644,-4.065,-4.064,-4.0631,-4.0647,-4.0649,-4.066,-4.0648,-4.0606,-4.0605,-4.0604,-4.0602,0,-4.0647,-4.061,-4.0687,-4.0669,-4.0666,-4.0726,-4.0711,-4.0753,-4.0731,-4.0787,-4.0797,-4.0762,-4.0804,-4.0766,-4.0805,-4.0785,-4.0887,-4.0861,-4.0886,-4.088,-4.0964,-4.0958,-4.1238,-4.1273,-4.1003,-4.1006,-4.1008,0,-4.077,-4.0825,-4.0812,-4.0837,-4.0837,-4.0877,-4.0897,-4.0847,-4.087,-4.0878,-4.0921,-4.0956,-4.0982,-4.1052,-4.1031,-4.1062,-4.1037,-4.1133,-4.1042,-4.1057,-4.1042,-4.104,-4.1046,-4.1153,-4.1156,-4.1159,-4.1161,0,-4.0995,-4.0975,-4.1005,-4.1031,-4.1056,-4.1073,-4.1085,-4.1109,-4.1058,-4.1088,-4.1129,-4.115,-4.119,-4.1228,-4.1252,-4.1249,-4.1198,-4.119,-4.121,-4.1228,-4.1241,-4.1238,-4.094,-4.1184,-4.1181,-4.118,-4.1178,-4.1178,-4.1165,-4.121,-4.121,-4.1246,-4.125,-4.1264,-4.1304,-4.1287,-4.132,-4.1349,-4.1318,-4.1369,-4.1372,-4.1399,-4.1403,-4.1444,-4.1403,-4.1433,-4.1441,-4.145,-4.1463,-4.1234,-4.1447,-4.1447,-4.1446,-4.1445,-4.1445,0,-4.1388,-4.1384,-4.1418,-4.1438,-4.1468,-4.1416,-4.1427,-4.1456,-4.1502,-4.1508,-4.1535,-4.1585,-4.1621,-4.1603,-4.1635,-4.1671,-4.1649,-4.1682,-4.168,-4.1681,-4.1496,-4.1476,-4.17,-4.17,-4.17,-4.1699,-4.1699,-4.1699,-4.1508,-4.1583,-4.1563,-4.1641,-4.1636,-4.1686,-4.1697,-4.171,-4.1715,-4.1773,-4.1803,-4.1791,-4.1788,-4.182,-4.1852,-4.1846,-4.1862,-4.1904,-4.189,-4.1718,-4.1693,-4.1669,-4.165,-4.1907,-4.1908,-4.2071,-4.2073,-4.2074]},{"header":{"parameterUnit":"m.s-1","parameterCategory":1,"la1":30.2991,"la2":30.254,"lo1":-89.0895,"lo2":-89.0444,"dy":0.0017,"dx":0.0017,"nx":28,"ny":28,"refTime":"2023-09-20T21:00:00:Z","depth":0,"parameterNumber":3,"parameterNumberName":"V-component_of_WINDS"},"data":[0,0,0,0,0,0,0,0,0,0,0,0,0,0,0,0,0,0,0,0,0,0,0,0,0,0,0,0,0,0,0,0,0,0,0,0,0,0,0,0,0,0,0,0,0,0,0,0,0,0,0,0,0,0,0,0,0,0,0.2103,0.2103,0,0.2066,0.2065,0.2065,0.2086,0.2087,0.2088,0.2089,0.2046,0.2044,0.2042,0,0,0,0,0,0,0,0,0,0,0,0,0,0.2187,0.2186,0.2103,0.2102,0.2102,0.2066,0.2065,0.2065,0.2086,0.2087,0.2088,0.2089,0.2047,0.2044,0.2041,0,0,0,0,0,0,0,0,0,0,0,0,0,0.215,0.2185,0.2103,0.2108,0.2108,0.2066,0.2065,0.2065,0.2085,0.2087,0.2089,0.209,0.2047,0.2044,0.2041,0.199,0,0,0.2031,0.203,0,0,0,0,0,0,0,0,0.2153,0.2147,0.2108,0.2108,0.2108,0.2082,0.2079,0.204,0.2085,0.2094,0.2089,0.2091,0.2056,0.2053,0.2042,0.1988,0.1986,0.2031,0.2029,0.2028,0.2027,0,0,0,0,0,0,0,0.2155,0.2149,0.2088,0.2107,0.2107,0.2111,0.2107,0.2072,0.2067,0.2093,0.2095,0.209,0.2057,0.2045,0.2041,0.1986,0.2031,0.2028,0.2026,0.2025,0.1887,0.1886,0,0,0,0,0,0,0.2158,0.2151,0.2089,0.2087,0.2135,0.2108,0.2104,0.2089,0.2067,0.2065,0.2089,0.2091,0.205,0.2045,0.204,0.1977,0.2028,0.2025,0.2023,0.1889,0.1887,0.1885,0,0,0,0,0,0,0.216,0.2152,0.2091,0.2119,0.2112,0.2105,0.2087,0.2087,0.2076,0.2064,0.2063,0.2078,0.2051,0.2044,0.2003,0.1976,0.2023,0.2021,0.1891,0.1888,0.1886,0.1853,0,0,0,0,0,0,0.2162,0.2153,0.2134,0.2119,0.211,0.2055,0.2086,0.2085,0.2071,0.2073,0.2054,0.2052,0.2051,0.2007,0.1999,0.1973,0.2018,0.1893,0.189,0.1887,0.1856,0.185,0.1844,0,0,0,0,0,0.2165,0.2125,0.2133,0.2125,0.2087,0.2054,0.2049,0.2051,0.2069,0.2049,0.2042,0.2052,0.1981,0.2003,0.1994,0.1966,0.1895,0.1891,0.1887,0.1859,0.1851,0.1844,0,0,0,0,0,0,0.2135,0.2123,0.2132,0.2086,0.2071,0.2057,0.2033,0.2042,0.202,0.2023,0.2025,0.202,0.1977,0.1968,0.1992,0.1915,0.1941,0.1935,0.1922,0.1914,0.1908,0.191,0.2015,0,0,0,0,0,0.2124,0.21,0.209,0.2051,0.2043,0.2039,0.2025,0.2028,0.2011,0.2004,0.1994,0.1976,0.195,0.1932,0.1907,0.1856,0.1851,0.1833,0.1827,0.1821,0.1815,0.1786,0.1778,0.1872,0.1872,0.1872,0,0,0.2099,0.209,0.2074,0.2044,0.2033,0.2006,0.2033,0.2004,0.1983,0.1999,0.1959,0.1951,0.1932,0.1885,0.1864,0.1876,0.1789,0.1816,0.1812,0.1809,0.1781,0.1772,0.1764,0.1869,0.187,0.187,0,0,0.204,0.2031,0.1997,0.1986,0.1969,0.1967,0.1959,0.1944,0.194,0.1901,0.1912,0.1887,0.1842,0.1827,0.1814,0.1751,0.1759,0.1743,0.1709,0.168,0.1673,0.1666,0.1642,0.1633,0.1737,0.1737,0.1737,0,0.201,0.1972,0.1978,0.1947,0.1933,0.195,0.1914,0.1903,0.1878,0.1867,0.1882,0.1826,0.1814,0.1763,0.1748,0.1737,0.1726,0.1743,0.1674,0.1667,0.1661,0.1637,0.1628,0.1735,0.1736,0.1736,0.1736,0,0.1935,0.1908,0.1883,0.186,0.1844,0.1811,0.1811,0.1793,0.1799,0.1795,0.1754,0.1741,0.1713,0.1702,0.1706,0.1651,0.1659,0.1674,0.1699,0.165,0.1628,0.1619,0.1732,0.1733,0.1734,0.1734,0,0,0.1853,0.1837,0.1827,0.1816,0.18,0.1778,0.1746,0.1721,0.1705,0.1688,0.1659,0.1622,0.1635,0.162,0.1623,0.1599,0.1547,0.1616,0.1616,0.1602,0.1485,0.1472,0.1461,0.1555,0.1553,0.1552,0.1486,0,0.1791,0.1736,0.1741,0.1688,0.1662,0.1679,0.165,0.1636,0.1632,0.1609,0.1604,0.1577,0.1598,0.1589,0.1566,0.1559,0.1523,0.1564,0.1525,0.1524,0.1527,0.145,0.1436,0.1374,0.1477,0.1476,0.1475,0,0.171,0.1692,0.1637,0.1624,0.1614,0.1588,0.1565,0.1544,0.1528,0.1527,0.1511,0.1518,0.1484,0.1513,0.1465,0.1492,0.1477,0.1472,0.1469,0.1463,0.1494,0.1439,0.1355,0.1344,0.1462,0.1463,0.1464,0,0.1653,0.1615,0.1576,0.1568,0.1553,0.1534,0.1527,0.1513,0.1498,0.1478,0.1468,0.1444,0.143,0.141,0.141,0.1432,0.1361,0.139,0.1357,0.1357,0.1339,0.1339,0.1248,0.1334,0.1334,0.1334,0.1335,0,0.1581,0.1546,0.155,0.1526,0.1487,0.1494,0.1455,0.145,0.1438,0.1412,0.1425,0.14,0.1403,0.1378,0.1378,0.1337,0.1332,0.1328,0.1328,0.1325,0.1325,0.1313,0.1316,0.1332,0.1333,0.1333,0.1333,0,0.1508,0.1511,0.147,0.146,0.1457,0.1428,0.1419,0.1396,0.1394,0.1362,0.1354,0.1351,0.1322,0.1321,0.1288,0.1288,0.1237,0.1244,0.1243,0.1243,0.1209,0.1211,0.1104,0.1089,0.1188,0.1187,0.1186,0,0.1461,0.1434,0.1422,0.1407,0.1399,0.1374,0.1359,0.1365,0.1348,0.133,0.1308,0.1281,0.1259,0.1212,0.1205,0.118,0.1183,0.1148,0.1179,0.1177,0.118,0.118,0.1176,0.114,0.1139,0.1138,0.1138,0,0.1375,0.1378,0.1356,0.1335,0.1317,0.1301,0.1285,0.1272,0.1276,0.1257,0.1228,0.1212,0.1179,0.115,0.1126,0.1117,0.1127,0.1129,0.1119,0.1114,0.1114,0.1111,0.1223,0.113,0.1131,0.1131,0.1132,0.1132,0.1311,0.1288,0.1277,0.1252,0.1242,0.1228,0.1205,0.1202,0.1179,0.1153,0.1159,0.1126,0.1111,0.108,0.1069,0.1043,0.1055,0.1042,0.1038,0.1033,0.1029,0.1121,0.1039,0.1039,0.1039,0.1039,0.1039,0,0.1224,0.1218,0.1196,0.1175,0.1155,0.117,0.1154,0.1136,0.1108,0.1095,0.1074,0.1041,0.1014,0.1007,0.0981,0.0961,0.0965,0.0954,0.0953,0.0951,0.1021,0.103,0.0951,0.0951,0.0951,0.0951,0.0951,0.0951,0.1176,0.1137,0.1139,0.1095,0.1089,0.1059,0.1048,0.1035,0.1024,0.0987,0.0966,0.0962,0.095,0.0924,0.09,0.0898,0.0886,0.0873,0.0872,0.0937,0.0946,0.0954,0.0963,0.0871,0.0871,0.0804,0.0804,0.0803]}]]